CAPE
0 0 0 0 0 0 0 0 0 0 0 0 0 0 0 0 0 0 0 0 0 0 0 0 0 0 0 0 0 0 0 0 0 0 0 0 0 0 0 0 0 0 0
0 0 0 0 0 0 0 0 0 0 0 0 0 0 0 0 0 0 0 0 0 0 0 0 0 0 0 0 0 0 0 0 0 0 0 0 0 0 0 0 0 0 0
0 0 0 0 0 0 0 0 0 0 0 0 0 0 0 0 0 0 0 0 0 0 0 0 0 0 0 0 0 0 0 0 0 0 0 0 0 0 0 0 0 0 0
0 0 0 0 0 0 0 0 0 0 0 0 0 0 0 0 0 0 0 0 0 0 0 0 0 0 0 0 0 0 0 0 0 0 0 0 0 0 0 0 0 0 0
0 0 0 0 0 0 0 0 0 0 0 0 0 0 0 0 0 0 0 0 0 0 0 0 0 0 0 0 0 0 0 0 0 0 0 0 0 0 0 0 0 0 0
0 0 0 0 0 0 0 0 0 0 0 0 0 0 0 0 0 0 0 0 0 0 0 0 0 0 0 0 0 0 0 0 0 0 0 0 0 0 0 0 0 0 0
0 0 0 0 0 0 0 0 0 0 0 0 0 0 0 0 0 0 0 0 0 0 0 0 0 0 0 0 0 0 0 0 0 0 0 0 0 0 0 0 0 0 0
0 0 0 0 0 0 0 0 0 0 0 0 0 0 0 0 0 0 0 0 0 0 0 0 0 0 0 0 0 0 0 0 0 0 0 0 0 0 0 0 0 0 0
0 0 0 0 0 0 0 0 0 0 0 0 0 0 0 0 0 0 0 0 0 0 0 0 0 0 0 0 0 0 0 0 0 0 0 0 0 0 0 0 0 0 0
0 0 0 0 0 0 0 0 0 0 0 0 0 0 0 0 0 0 0 0 0 0 0 0 0 0 0 0 0 0 0 0 0 0 0 0 0 0 0 0 0 0 0
0 0 0 0 0 0 0 0 0 0 0 0 0 0 0 0 0 0 0 0 0 0 0 0 0 0 0 0 0 0 0 0 0 0 0 0 0 0 0 0 0 0 0
0 0 0 0 0 0 0 0 0 0 0 0 0 0 0 0 0 0 0 0 0 0 0 0 0 0 0 0 0 0 0 0 0 0 0 0 0 0 0 0 0 0 0
0 0 0 0 0 0 0 0 0 0 0 0 0 0 0 0 0 0 0 0 0 0 0 0 0 0 0 0 0 0 0 0 0 0 0 0 0 0 0 0 0 0 0
0 0 0 0 0 0 0 0 0 0 0 0 0 0 0 0 0 0 0 0 0 0 0 0 0 0 0 0 0 0 0 0 0 0 0 0 0 0 0 0 0 0 0
0 0 0 0 0 0 0 0 0 0 0 0 0 0 0 0 0 0 0 0 0 0 0 0 0 0 0 0 0 0 0 0 0 0 0 0 0 3 1 0 0 0 0
4 1 2 1 0 0 0 0 0 0 0 0 0 0 0 0 0 0 0 0 0 0 0 0 0 0 0 0 2 1 0 0 0 0 0 0 2 0 13 22 29 27 1
0 1 0 0 0 0 0 0 0 0 0 0 0 0 0 0 0 0 0 0 0 0 0 0 0 0 0 0 4 10 3 2 0 0 1 2 3 3 0 4 18 20 23
0 0 0 0 0 0 0 0 0 0 0 0 0 0 0 0 0 0 0 0 0 0 0 0 0 0 0 1 7 13 1 0 0 0 0 0 0 0 2 1 0 0 0
0 0 0 0 0 0 0 0 0 0 0 0 0 0 0 0 0 0 0 0 0 0 0 0 0 0 0 0 5 8 0 0 0 0 0 0 0 7 19 9 12 11 9
0 0 0 0 0 0 0 0 0 0 0 0 0 0 0 0 0 0 0 0 0 0 0 0 0 0 0 0 7 9 5 3 10 2 2 20 10 26 34 10 1 0 0
0 0 0 0 0 0 0 0 0 0 0 0 0 0 0 0 0 0 0 0 0 0 0 0 0 0 0 0 2 10 8 9 9 8 4 2 14 22 35 47 19 32 19
0 0 0 0 0 0 0 0 0 0 0 0 0 0 0 0 0 0 0 0 0 0 0 0 0 0 0 0 3 13 24 20 17 13 12 2 29 36 45 41 54 70 53
0 0 0 0 0 0 0 0 0 0 0 0 0 0 0 0 0 0 0 0 0 0 0 0 0 0 0 0 2 14 27 35 22 24 28 55 51 64 59 88 76 74 22
0 0 0 0 0 0 0 0 0 0 0 0 0 0 0 0 0 0 0 0 0 0 0 0 0 0 0 0 0 0 0 0 0 0 0 0 6 30 22 32 25 11 19
0 0 0 0 0 0 0 0 0 0 0 0 0 0 0 0 0 0 0 0 0 0 0 0 0 0 0 0 4 7 0 0 0 0 0 0 0 0 0 0 0 0 0
0 0 0 0 0 0 0 0 0 0 0 0 0 0 0 0 0 0 0 10 28 53 55 48 3 0 6 15 30 41 43 57 82 12 0 1 1 0 1 3 0 1 4
CIN
-0 -0 -0 -0 -0 -0 -0 -0 -0 -0 -0 -0 -0 -0 -0 -0 -0 -0 -0 -0 -0 -0 -0 -0 -0 -0 -0 -0 -0 -0 -0 -0 -0 -0 -0 -0 -0 -0 -0 -0 -0 -0 -0
-0 -0 -0 -0 -0 -0 -0 -0 -0 -0 -0 -0 -0 -0 -0 -0 -0 -0 -0 -0 -0 -0 -0 -0 -0 -0 -0 -0 -0 -0 -0 -0 -0 -0 -0 -0 -0 -0 -0 -0 -0 -0 -0
-0 -0 -0 -0 -0 -0 -0 -0 -0 -0 -0 -0 -0 -0 -0 -0 -0 -0 -0 -0 -0 -0 -0 -0 -0 -0 -0 -0 -0 -0 -0 -0 -0 -0 -0 -0 -0 -0 -0 -0 -0 -0 -0
-0 -0 -0 -0 -0 -0 -0 -0 -0 -0 -0 -0 -0 -0 -0 -0 -0 -0 -0 -0 -0 -0 -0 -0 -0 -0 -0 -0 -0 -0 -0 -0 -0 -0 -0 -0 -0 -0 -0 -0 -0 -0 -0
-0 -0 -0 -0 -0 -0 -0 -0 -0 -0 -0 -0 -0 -0 -0 -0 -0 -0 -0 -0 -0 -0 -0 -0 -0 -0 -0 -0 -0 -0 -0 -0 -0 -0 -0 -0 -0 -0 -0 -0 -0 -0 -0
-0 -0 -0 -0 -0 -0 -0 -0 -0 -0 -0 -0 -0 -0 -0 -0 -0 -0 -0 -0 -0 -0 -0 -0 -0 -0 -0 -0 -0 -0 -0 -0 -0 -0 -0 -0 -0 -0 -0 -0 -0 -0 -0
-0 -0 -0 -0 -0 -0 -0 -0 -0 -0 -0 -0 -0 -0 -0 -0 -0 -0 -0 -0 -0 -0 -0 -0 -0 -0 -0 -0 -0 -0 -0 -0 -0 -0 -0 -0 -0 -0 -0 -0 -0 -0 -0
-0 -0 -0 -0 -0 -0 -0 -0 -0 -0 -0 -0 -0 -0 -0 -0 -0 -0 -0 -0 -0 -0 -0 -0 -0 -0 -0 -0 -0 -0 -0 -0 -0 -0 -0 -0 -0 -0 -0 -0 -0 -0 -0
-0 -0 -0 -0 -0 -0 -0 -0 -0 -0 -0 -0 -0 -0 -0 -0 -0 -0 -0 -0 -0 -0 -0 -0 -0 -0 -0 -0 -0 -0 -0 -0 -0 -0 -0 -0 -0 -0 -0 -0 -0 -0 -0
-0 -0 -0 -0 -0 -0 -0 -0 -0 -0 -0 -0 -0 -0 -0 -0 -0 -0 -0 -0 -0 -0 -0 -0 -0 -0 -0 -0 -0 -0 -0 -0 -0 -0 -0 -0 -0 -0 -0 -0 -0 -0 -0
-0 -0 -0 -0 -0 -0 -0 -0 -0 -0 -0 -0 -0 -0 -0 -0 -0 -0 -0 -0 -0 -0 -0 -0 -0 -0 -0 -0 -0 -0 -0 -0 -0 -0 -0 -0 -0 -0 -0 -0 -0 -0 -0
-0 -0 -0 -0 -0 -0 -0 -0 -0 -0 -0 -0 -0 -0 -0 -0 -0 -0 -0 -0 -0 -0 -0 -0 -0 -0 -0 -0 -0 -0 -0 -0 -0 -0 -0 -0 -0 -0 -0 -0 -0 -0 -0
-0 -0 -0 -0 -0 -0 -0 -0 -0 -0 -0 -0 -0 -0 -0 -0 -0 -0 -0 -0 -0 -0 -0 -0 -0 -0 -0 -0 -0 -0 -0 -0 -0 -0 -0 -0 -0 -0 -0 -0 -0 -0 -0
-0 -0 -0 -0 -0 -0 -0 -0 -0 -0 -0 -0 -0 -0 -0 -0 -0 -0 -0 -0 -0 -0 -0 -0 -0 -0 -0 -0 -0 -0 -0 -0 -0 -0 -0 -0 -0 -0 -0 -0 -0 -0 -0
-0 -0 -0 -0 -0 -0 -0 -0 -0 -0 -0 -0 -0 -0 -0 -0 -0 -0 -0 -0 -0 -0 -0 -0 -0 -0 -0 -0 -0 -0 -0 -0 -0 -0 -0 -0 -0 -0 -1 -0 -0 -0 -0
-0 -0 -0 -1 -0 -0 -0 -0 -0 -0 -0 -0 -0 -0 -0 -0 -0 -0 -0 -0 -0 -0 -0 -0 -0 -0 -0 -0 -0 -0 -0 -0 -0 -0 -0 -0 -0 -0 -0 -0 -0 -0 -16
-0 -0 -0 -0 -0 -0 -0 -0 -0 -0 -0 -0 -0 -0 -0 -0 -0 -0 -0 -0 -0 -0 -0 -0 -0 -0 -0 -0 -0 -0 -1 -2 -0 -0 -0 -0 -0 -0 -1 -0 -0 -0 -0
-4 -0 -0 -0 -0 -0 -0 -0 -0 -0 -0 -0 -0 -0 -0 -0 -0 -0 -0 -0 -0 -0 -0 -0 -0 -0 -0 -0 -0 -0 -3 -3 -0 -0 -0 -0 -0 -0 -0 -0 -0 -0 -0
-0 -0 -0 -0 -0 -0 -0 -0 -0 -0 -0 -0 -0 -0 -0 -0 -0 -0 -0 -0 -0 -0 -0 -0 -0 -0 -0 -0 -0 -0 -0 -0 -0 -0 -0 -0 -0 -0 -0 -0 -0 -0 -0
-0 -0 -0 -0 -0 -0 -0 -0 -0 -0 -0 -0 -0 -0 -0 -0 -0 -0 -0 -0 -0 -0 -0 -0 -0 -0 -0 -0 -0 -0 -0 -1 -0 -0 -0 -0 -0 -0 -0 -0 -1 -0 -0
-0 -0 -0 -0 -0 -0 -0 -0 -0 -0 -0 -0 -0 -0 -0 -0 -0 -0 -0 -0 -0 -0 -0 -0 -0 -0 -0 -0 -0 -0 -0 -0 -0 -0 -0 -0 -0 -0 -0 -0 -0 -0 -4
-0 -0 -0 -0 -0 -0 -0 -0 -0 -0 -0 -0 -0 -0 -0 -0 -0 -0 -0 -0 -0 -0 -0 -0 -0 -0 -0 -0 -0 -0 -0 -0 -0 -0 -0 -0 -0 -0 -0 -0 -0 -0 -0
-0 -0 -0 -0 -0 -0 -0 -0 -0 -0 -0 -0 -0 -0 -0 -0 -0 -0 -0 -0 -0 -0 -0 -0 -0 -0 -0 -0 -0 -0 -0 -0 -0 -0 -0 -0 -0 -0 -0 -0 -0 -0 -0
-0 -0 -0 -0 -0 -0 -0 -0 -0 -0 -0 -0 -0 -0 -0 -0 -0 -0 -0 -0 -0 -0 -0 -0 -0 -0 -0 -0 -0 -0 -0 -0 -0 -0 -0 -0 -0 -0 -1 -0 -0 -0 -0
-0 -0 -0 -0 -0 -0 -0 -0 -0 -0 -0 -0 -0 -0 -0 -0 -0 -0 -0 -0 -0 -0 -0 -0 -0 -0 -0 -0 -0 -0 -0 -0 -0 -0 -0 -0 -0 -0 -0 -0 -0 -0 -0
-0 -0 -0 -0 -0 -0 -0 -0 -0 -0 -0 -0 -0 -0 -0 -0 -0 -0 -0 -0 -0 -1 -0 -0 -0 -0 -0 -0 -0 -0 -0 -0 -0 -2 -0 -0 -0 -0 -0 -0 -0 -0 -0
Wind_Speed
11 13 13 10 8 8 8 8 9 8 5 4 5 5 4 5 4 5 7 6 6 7 6 5 6 5 5 6 7 5 5 5 7 4 6 2 5 6 4 5 5 5 5
15 14 13 10 8 7 8 8 8 7 5 4 4 5 5 5 5 4 6 6 6 6 7 6 5 6 5 6 6 6 4 3 5 3 2 4 4 5 2 3 5 6 4
19 16 15 12 9 8 8 8 8 6 6 6 7 6 7 4 4 4 4 5 6 6 6 6 5 5 5 4 5 5 6 4 4 6 3 4 2 4 3 4 4 5 4
17 17 15 13 11 8 7 7 7 7 6 7 6 8 5 6 4 4 4 4 6 6 6 6 6 5 4 5 4 5 3 4 4 3 4 1 1 2 4 4 5 4 5
18 18 16 13 10 9 8 7 7 6 6 6 7 5 6 6 4 4 7 6 5 6 5 5 5 5 4 4 4 4 4 2 2 2 2 3 2 4 4 4 4 4 4
17 15 13 11 9 9 8 7 7 6 6 5 6 8 9 8 5 5 5 4 4 4 5 3 4 4 4 4 3 2 3 1 2 2 2 2 2 2 2 3 3 4 4
17 16 15 12 11 11 9 8 8 7 6 6 6 7 8 7 8 5 4 5 3 3 5 2 3 3 3 2 1 2 2 3 2 3 3 2 3 2 3 4 5 4 3
12 14 14 12 13 12 9 9 8 7 7 7 7 6 7 4 5 5 4 3 3 4 4 4 3 1 1 1 1 1 2 4 3 5 4 3 4 3 3 4 4 8 5
10 12 12 11 12 10 9 9 9 7 7 7 6 6 6 6 5 6 3 3 3 3 3 2 1 1 1 1 2 2 3 3 4 4 5 4 4 3 4 4 4 5 8
7 8 9 9 7 8 8 8 9 8 7 7 6 5 6 5 5 4 3 3 2 2 1 1 1 1 2 2 3 3 4 4 3 4 5 4 3 4 4 4 4 4 7
7 7 7 7 8 8 8 8 8 8 7 6 6 6 5 5 4 3 2 3 2 1 2 2 2 3 3 3 3 4 5 6 5 5 5 6 6 4 4 4 4 5 5
7 8 9 8 7 7 7 6 6 7 6 6 6 5 5 5 4 4 4 3 2 2 3 3 4 4 4 4 5 5 5 5 6 6 6 6 7 6 5 4 6 6 6
8 7 8 7 6 6 6 5 4 4 4 5 4 4 4 4 5 4 4 4 4 4 4 5 5 5 5 5 5 5 6 6 6 6 7 7 6 7 5 5 5 6 8
6 5 6 5 5 5 5 4 3 3 2 3 2 4 4 4 4 4 4 4 5 5 6 6 5 5 6 7 7 8 7 6 8 8 8 8 8 8 7 8 8 8 8
7 6 5 4 3 3 2 1 2 1 3 3 3 4 4 4 5 5 5 5 5 6 6 6 6 7 7 7 8 10 10 9 8 8 9 10 12 20 17 10 10 10 9
8 8 7 5 4 4 4 5 5 5 3 4 6 6 6 6 6 5 5 5 6 6 6 7 8 8 8 16 19 15 9 10 11 10 9 10 17 17 24 25 27 20 11
10 8 6 3 1 1 2 5 5 5 6 7 8 7 8 8 7 6 6 8 7 6 8 8 8 10 9 19 21 21 11 10 10 10 10 11 10 17 12 17 24 23 26
5 4 2 4 5 4 6 5 4 5 6 6 7 9 8 8 7 8 9 9 9 10 9 10 10 10 10 21 22 22 13 11 11 11 11 12 13 13 15 15 15 16 14
6 6 6 6 6 6 7 6 4 6 6 8 11 10 9 9 9 10 10 10 10 10 10 12 11 11 11 21 22 20 12 12 12 11 12 13 14 18 25 17 16 16 14
7 9 10 9 6 7 7 6 8 6 8 11 12 9 8 11 11 11 10 8 9 11 10 13 12 16 13 20 23 20 10 12 10 11 13 22 20 25 27 18 16 16 15
10 9 7 10 11 9 8 10 10 10 12 10 9 7 7 10 10 8 6 6 8 11 10 12 11 11 12 11 23 25 14 11 10 10 9 9 23 27 27 28 15 15 15
13 11 10 9 6 6 9 12 12 12 9 8 9 8 7 7 7 7 6 6 7 9 10 10 10 10 11 21 23 26 27 23 14 12 11 12 25 27 29 25 26 30 27
14 12 11 12 10 7 6 10 9 8 11 10 9 8 7 7 7 7 7 7 9 9 9 8 9 9 9 10 23 25 27 28 18 11 15 26 29 30 26 27 28 28 13
15 14 13 13 13 9 10 9 8 7 7 9 9 8 9 9 10 9 8 9 9 9 9 9 9 8 8 8 8 10 10 18 16 16 13 17 23 26 22 17 14 9 8
15 15 14 10 12 13 13 11 11 6 8 6 7 8 9 11 9 9 9 10 11 11 9 10 9 9 9 10 17 14 10 10 14 16 10 10 10 10 10 10 10 9 8
13 15 16 14 14 14 14 13 11 7 9 9 8 8 8 8 9 9 9 21 22 26 27 27 19 13 23 25 25 25 25 25 26 13 11 11 11 12 11 11 12 8 8
Wind_Direction
165 153 152 149 137 142 142 140 134 135 134 132 128 120 109 97 81 76 78 70 64 55 62 57 45 48 55 49 34 11 16 19 4 7 345 17 127 58 55 66 73 57 26
165 157 153 148 154 148 143 137 143 158 162 146 136 117 120 102 102 85 78 77 64 69 73 70 60 49 59 49 43 34 13 18 31 23 284 4 342 13 27 68 54 60 37
168 162 160 158 157 157 156 149 143 147 105 102 99 94 95 99 113 108 84 85 80 72 74 66 69 58 60 59 52 39 38 16 2 50 79 359 352 327 332 47 34 33 32
165 162 161 160 161 161 141 128 134 126 122 126 116 134 145 148 127 116 118 96 96 85 82 80 77 69 65 59 34 43 34 38 15 356 30 28 208 331 319 331 352 19 12
162 159 158 157 158 144 137 132 127 132 147 164 156 167 113 114 108 117 129 125 104 101 84 85 83 77 68 64 59 37 22 14 43 21 349 351 313 259 246 282 304 354 355
147 149 149 152 143 127 125 128 125 134 144 140 139 124 123 130 134 147 141 145 137 133 111 102 98 96 81 63 34 17 343 345 334 300 284 227 249 318 319 314 321 283 292
149 151 155 157 148 141 138 143 144 143 134 117 100 109 124 138 145 141 133 136 138 132 124 108 92 74 84 63 4 324 305 285 257 270 275 285 269 261 265 282 283 276 293
144 149 156 159 146 150 150 152 144 138 132 120 106 93 94 91 95 87 91 94 93 104 97 89 84 80 92 24 320 298 294 271 265 264 268 264 264 265 254 258 278 292 274
135 148 151 151 146 151 152 145 138 137 133 124 113 109 97 102 110 103 96 111 105 124 117 99 123 23 340 300 283 261 268 283 282 278 273 264 260 259 258 251 240 260 286
108 123 131 131 131 133 133 127 123 127 123 124 128 121 111 98 100 107 139 115 103 118 119 170 241 275 286 282 278 269 267 271 274 276 279 278 272 271 267 265 259 247 264
78 83 85 95 106 102 108 118 124 130 133 131 120 121 133 136 140 158 165 157 151 171 232 232 249 264 268 276 276 271 272 271 266 268 264 261 264 260 262 266 259 267 264
75 75 73 72 78 89 90 100 104 123 140 144 140 156 148 153 176 198 202 186 202 236 233 241 246 249 254 261 260 258 273 271 266 261 265 266 273 269 260 250 252 256 256
67 68 67 66 71 76 82 89 93 103 120 127 142 170 183 187 206 216 213 200 212 229 246 246 240 244 246 249 253 252 251 253 251 249 254 257 255 261 257 259 263 265 271
95 98 89 89 87 80 74 59 71 112 100 114 163 209 218 230 232 238 230 216 217 226 236 238 238 243 241 250 251 254 252 247 255 255 257 253 249 253 253 260 263 265 266
110 114 116 112 102 109 127 151 248 268 175 177 214 229 232 237 243 243 241 236 232 237 231 236 232 233 239 246 241 244 246 247 247 252 259 261 259 260 251 243 240 245 247
70 70 73 90 125 154 184 201 208 210 194 218 222 224 231 233 232 234 240 243 242 239 237 239 239 238 241 250 258 258 239 243 252 259 261 265 274 278 278 278 278 263 234
36 31 26 24 356 288 226 234 218 199 206 219 232 228 228 230 228 235 241 246 250 251 248 245 241 245 241 255 261 263 261 254 252 256 263 267 269 276 279 285 283 284 285
339 330 308 276 251 230 231 237 215 214 215 220 224 232 229 229 228 229 237 244 248 248 249 248 247 252 252 257 261 264 263 259 256 256 259 261 263 261 264 263 263 262 262
255 250 257 265 262 254 259 261 249 234 229 232 236 238 223 221 226 230 233 240 246 248 249 252 250 250 252 258 262 266 268 266 262 260 258 258 260 264 269 270 271 273 270
269 263 260 252 241 244 237 242 250 240 243 247 248 235 214 220 223 228 229 229 236 247 249 253 250 249 253 254 260 262 262 263 263 260 259 264 267 268 269 264 262 265 264
307 296 282 255 252 241 228 240 247 243 249 256 254 240 223 224 228 225 215 214 230 248 250 254 254 255 254 258 261 262 262 263 264 262 263 262 268 272 274 274 268 265 262
310 307 301 294 271 236 216 239 240 241 233 227 237 236 230 232 238 219 223 219 222 236 243 246 252 252 252 258 259 260 261 262 260 257 257 257 264 272 273 273 272 272 273
314 311 303 300 297 279 246 263 258 226 222 223 226 223 226 227 221 228 232 230 228 236 241 240 247 248 244 246 257 261 261 260 262 260 259 261 263 264 267 277 280 276 273
310 307 304 299 295 291 286 277 276 262 227 227 228 222 220 232 227 231 231 230 231 235 236 237 243 249 250 250 249 252 264 276 280 288 288 280 275 270 268 272 282 281 270
310 300 294 301 305 303 297 289 282 268 270 255 247 231 230 237 246 226 225 230 227 223 231 234 235 235 238 235 242 240 237 241 244 249 247 250 255 258 260 262 263 255 260
328 322 314 309 304 297 293 291 279 268 272 269 258 248 237 237 239 237 242 253 253 239 245 245 220 229 231 237 245 251 257 258 249 237 234 235 239 243 248 250 255 250 257